Location: Sungai Bunut
(2.6333°N, 113.7333°E)
Time: 02:46:07
(UTC+00:00)

S-56A Canister/Altair - Pass Details

Date: 09 December 2023
Orbit: 640 x 2488 km, 38.9° (Epoch: 24 February)

Event Time Altitude Azimuth Distance (km) Brightness Sun altitude
Rises 22:32:23 0° 226° (SW) 5,746 11.8 2.4°
Reaches altitude 10° 22:36:33 10° 225° (SW) 4,514 11.2 3.4°
Maximum altitude 22:48:20 79° 139° (SE) 1,534 9.3 6.1°
Drops below altitude 10° 22:55:57 10° 53° (NE) 3,016 11.0 7.8°
Sets 22:58:13 0° 52° (NE) 3,778 11.5 8.3°
